Location: Home
(42.5358°N, 72.7383°W)
Time: 06:52:25
(UTC-05:00)

Courier 1B Rocket - Pass Details

Date: 07 December 2021
Orbit: 920 x 1202 km, 28.2° (Epoch: 25 January)

Event Time Altitude Azimuth Distance (km) Brightness Sun altitude
Rises 23:16:44 0° 248° (WSW) 3,678 - -69.5°
Reaches altitude 10° 23:20:05 10° 233° (SW) 2,687 - -69.6°
Maximum altitude 23:24:45 21° 186° (S) 1,955 - -69.8°
Drops below altitude 10° 23:29:18 10° 139° (SE) 2,610 - -70.0°
Sets 23:32:30 0° 124° (ESE) 3,544 - -70.1°
